| time (UTC) | temp C | wind direction | speed KPH | gust KPH | rain 1hr cm | rain 24hr cm | rain mn cm | humidity % | barometer mb |
| 20260507074008 | 12 | 17 | 3.2 | 12.9 | 0.00 | 0.00 | 0.00 | 75 | 1020.9 |
| 20260507073507 | 12 | 340 | 1.6 | 12.9 | 0.00 | 0.00 | 0.00 | 75 | 1020.8 |
| 20260507073007 | 12 | 315 | 3.2 | 8.0 | 0.00 | 0.00 | 0.00 | 75 | 1020.8 |
| 20260507072507 | 12 | 294 | 1.6 | 8.0 | 0.00 | 0.00 | 0.00 | 75 | 1020.7 |
| 20260507072004 | 12 | 294 | 3.2 | 12.9 | 0.00 | 0.00 | 0.00 | 75 | 1020.7 |
| 20260507071508 | 12 | 329 | 3.2 | 12.9 | 0.00 | 0.00 | 0.00 | 75 | 1020.7 |
| 20260507071005 | 12 | 328 | 3.2 | 8.0 | 0.00 | 0.00 | 0.00 | 75 | 1020.6 |
| 20260507070504 | 12 | 300 | 1.6 | 8.0 | 0.00 | 0.00 | 0.00 | 75 | 1020.6 |
| 20260507070014 | 12 | 334 | 1.6 | 8.0 | 0.00 | 0.00 | 0.00 | 75 | 1020.7 |
| 20260507065503 | 12 | 289 | 3.2 | 9.7 | 0.00 | 0.00 | 0.00 | 74 | 1020.6 |
| 20260507065008 | 12 | 302 | 1.6 | 14.5 | 0.00 | 0.00 | 0.00 | 74 | 1020.6 |
| 20260507064520 | 12 | 12 | 4.8 | 14.5 | 0.00 | 0.00 | 0.00 | 74 | 1020.6 |
| 20260507064007 | 12 | 20 | 4.8 | 14.5 | 0.00 | 0.00 | 0.00 | 74 | 1020.7 |
| 20260507063508 | 12 | 313 | 1.6 | 14.5 | 0.00 | 0.00 | 0.00 | 74 | 1020.7 |
| 20260507063029 | 12 | 20 | 4.8 | 17.7 | 0.00 | 0.00 | 0.00 | 75 | 1020.7 |
| 20260507062510 | 12 | 9 | 6.4 | 19.3 | 0.00 | 0.00 | 0.00 | 74 | 1020.7 |
| 20260507062003 | 12 | 338 | 1.6 | 19.3 | 0.00 | 0.00 | 0.00 | 75 | 1020.7 |
| 20260507061507 | 12 | 342 | 3.2 | 14.5 | 0.00 | 0.00 | 0.00 | 75 | 1020.7 |
| 20260507061004 | 12 | 360 | 6.4 | 17.7 | 0.00 | 0.00 | 0.00 | 75 | 1020.8 |
| 20260507060504 | 12 | 342 | 4.8 | 17.7 | 0.00 | 0.00 | 0.00 | 75 | 1020.8 |
| 20260507060012 | 12 | 310 | 4.8 | 14.5 | 0.00 | 0.00 | 0.00 | 76 | 1020.7 |
| 20260507055503 | 12 | 306 | 1.6 | 17.7 | 0.00 | 0.00 | 0.00 | 76 | 1020.7 |
| 20260507055007 | 12 | 330 | 4.8 | 17.7 | 0.00 | 0.00 | 0.00 | 76 | 1020.7 |
| 20260507054518 | 12 | 9 | 6.4 | 14.5 | 0.00 | 0.00 | 0.00 | 76 | 1020.7 |
| 20260507054007 | 12 | 11 | 3.2 | 16.1 | 0.00 | 0.00 | 0.00 | 76 | 1020.8 |
| 20260507053504 | 12 | 26 | 4.8 | 16.1 | 0.00 | 0.00 | 0.00 | 76 | 1020.7 |
| 20260507053022 | 12 | 339 | 6.4 | 17.7 | 0.00 | 0.00 | 0.00 | 75 | 1020.8 |
| 20260507052508 | 12 | 321 | 3.2 | 17.7 | 0.00 | 0.00 | 0.00 | 75 | 1020.7 |
| 20260507052008 | 12 | 346 | 6.4 | 16.1 | 0.00 | 0.00 | 0.00 | 75 | 1020.6 |
| 20260507051536 | 13 | 338 | 4.8 | 19.3 | 0.00 | 0.00 | 0.00 | 75 | 1020.7 |
| 20260507051003 | 13 | 9 | 6.4 | 22.5 | 0.00 | 0.00 | 0.00 | 75 | 1020.7 |
| 20260507050503 | 13 | 348 | 12.9 | 22.5 | 0.00 | 0.00 | 0.00 | 74 | 1020.7 |
| 20260507050011 | 13 | 351 | 8.0 | 19.3 | 0.00 | 0.00 | 0.00 | 74 | 1020.7 |
| 20260507045503 | 13 | 344 | 11.3 | 20.9 | 0.00 | 0.00 | 0.00 | 74 | 1020.7 |
| 20260507045003 | 13 | 360 | 8.0 | 20.9 | 0.00 | 0.00 | 0.00 | 74 | 1020.8 |
| 20260507044515 | 13 | 9 | 6.4 | 16.1 | 0.00 | 0.00 | 0.00 | 74 | 1020.8 |
| 20260507044004 | 13 | 73 | 3.2 | 24.1 | 0.00 | 0.00 | 0.00 | 74 | 1020.8 |
| 20260507043504 | 13 | 22 | 6.4 | 27.4 | 0.00 | 0.00 | 0.00 | 73 | 1020.7 |
| 20260507043020 | 13 | 352 | 12.9 | 27.4 | 0.00 | 0.00 | 0.00 | 73 | 1020.7 |
| 20260507042505 | 13 | 346 | 9.7 | 24.1 | 0.00 | 0.00 | 0.00 | 73 | 1020.6 |
| 20260507042007 | 13 | 9 | 9.7 | 19.3 | 0.00 | 0.00 | 0.00 | 73 | 1020.3 |
| 20260507041524 | 13 | 344 | 6.4 | 22.5 | 0.00 | 0.00 | 0.00 | 73 | 1020.2 |
| 20260507041009 | 13 | 333 | 11.3 | 22.5 | 0.00 | 0.00 | 0.00 | 73 | 1020.2 |
| 20260507040510 | 13 | 352 | 12.9 | 22.5 | 0.00 | 0.00 | 0.00 | 72 | 1020.1 |
| 20260507040026 | 13 | 9 | 6.4 | 25.7 | 0.00 | 0.00 | 0.00 | 72 | 1020.2 |
| 20260507035504 | 14 | 17 | 14.5 | 25.7 | 0.00 | 0.00 | 0.00 | 72 | 1020.1 |
| 20260507035005 | 14 | 352 | 8.0 | 20.9 | 0.00 | 0.00 | 0.00 | 72 | 1020.0 |
| 20260507034520 | 14 | 360 | 12.9 | 20.9 | 0.00 | 0.00 | 0.00 | 72 | 1019.9 |
| 20260507034006 | 14 | 50 | 8.0 | 19.3 | 0.00 | 0.00 | 0.00 | 72 | 1020.0 |
| 20260507033507 | 14 | 9 | 4.8 | 19.3 | 0.00 | 0.00 | 0.00 | 72 | 1019.8 |
| 20260507033019 | 15 | 325 | 8.0 | 19.3 | 0.00 | 0.00 | 0.00 | 71 | 1019.7 |
| 20260507032507 | 15 | 352 | 9.7 | 20.9 | 0.00 | 0.00 | 0.00 | 71 | 1019.7 |
| 20260507032007 | 15 | 9 | 14.5 | 20.9 | 0.00 | 0.00 | 0.00 | 71 | 1019.7 |
| 20260507031520 | 15 | 352 | 8.0 | 16.1 | 0.00 | 0.00 | 0.00 | 71 | 1019.7 |
| 20260507031007 | 15 | 16 | 4.8 | 16.1 | 0.00 | 0.00 | 0.00 | 71 | 1019.5 |
| 20260507030507 | 15 | 302 | 8.0 | 16.1 | 0.00 | 0.00 | 0.00 | 71 | 1019.5 |
| 20260507030024 | 15 | 16 | 6.4 | 17.7 | 0.00 | 0.00 | 0.00 | 71 | 1019.4 |
| 20260507025510 | 15 | 324 | 6.4 | 17.7 | 0.00 | 0.00 | 0.00 | 71 | 1019.4 |
| 20260507025010 | 15 | 9 | 6.4 | 22.5 | 0.00 | 0.00 | 0.00 | 70 | 1019.4 |
| 20260507024514 | 15 | 349 | 6.4 | 22.5 | 0.00 | 0.00 | 0.00 | 70 | 1019.3 |
| 20260507024004 | 16 | 352 | 11.3 | 22.5 | 0.00 | 0.00 | 0.00 | 70 | 1019.3 |
| 20260507023508 | 16 | 338 | 8.0 | 17.7 | 0.00 | 0.00 | 0.00 | 70 | 1019.3 |
| 20260507023014 | 16 | 345 | 3.2 | 19.3 | 0.00 | 0.00 | 0.00 | 70 | 1019.3 |
| 20260507022504 | 16 | 17 | 6.4 | 16.1 | 0.00 | 0.00 | 0.00 | 70 | 1019.2 |
| 20260507022010 | 16 | 349 | 4.8 | 17.7 | 0.00 | 0.00 | 0.00 | 70 | 1019.3 |
| 20260507021519 | 16 | 292 | 4.8 | 17.7 | 0.00 | 0.00 | 0.00 | 70 | 1019.3 |
| 20260507021009 | 16 | 300 | 8.0 | 16.1 | 0.00 | 0.00 | 0.00 | 70 | 1019.2 |
| 20260507020507 | 16 | 352 | 8.0 | 16.1 | 0.00 | 0.00 | 0.00 | 1019.3 | |
| 20260507020024 | 16 | 9 | 4.8 | 17.7 | 0.00 | 0.00 | 0.00 | 1019.3 | |
| 20260507015513 | 16 | 304 | 4.8 | 17.7 | 0.00 | 0.00 | 0.00 | 1019.3 | |
| 20260507015008 | 16 | 329 | 6.4 | 20.9 | 0.00 | 0.00 | 0.00 | 1019.3 | |
| 20260507014536 | 16 | 352 | 9.7 | 20.9 | 0.00 | 0.00 | 0.00 | 68 | 1019.3 |
| 20260507014009 | 17 | 306 | 4.8 | 19.3 | 0.00 | 0.00 | 0.00 | 68 | 1019.4 |
| 20260507013504 | 17 | 323 | 9.7 | 19.3 | 0.00 | 0.00 | 0.00 | 68 | 1019.4 |
| 20260507013013 | 17 | 9 | 6.4 | 20.9 | 0.00 | 0.00 | 0.00 | 67 | 1019.4 |
| 20260507012504 | 17 | 276 | 8.0 | 22.5 | 0.00 | 0.00 | 0.00 | 67 | 1019.4 |
| 20260507012008 | 17 | 18 | 8.0 | 22.5 | 0.00 | 0.00 | 0.00 | 66 | 1019.4 |
| 20260507011531 | 17 | 352 | 11.3 | 19.3 | 0.00 | 0.00 | 0.00 | 66 | 1019.4 |
| 20260507011004 | 17 | 5 | 6.4 | 19.3 | 0.00 | 0.00 | 0.00 | 66 | 1019.3 |
| 20260507010510 | 17 | 323 | 3.2 | 20.9 | 0.00 | 0.00 | 0.00 | 66 | 1019.3 |
| 20260507010022 | 18 | 346 | 9.7 | 20.9 | 0.00 | 0.00 | 0.00 | 65 | 1019.3 |
| 20260507005509 | 18 | 346 | 6.4 | 19.3 | 0.00 | 0.00 | 0.00 | 64 | 1019.3 |
| 20260507005013 | 18 | 26 | 6.4 | 19.3 | 0.00 | 0.00 | 0.00 | 63 | 1019.2 |
| 20260507004526 | 18 | 341 | 4.8 | 19.3 | 0.00 | 0.00 | 0.00 | 63 | 1019.3 |
| 20260507004009 | 18 | 12 | 4.8 | 19.3 | 0.00 | 0.00 | 0.00 | 63 | 1019.2 |
| 20260507003512 | 18 | 26 | 6.4 | 17.7 | 0.00 | 0.00 | 0.00 | 64 | 1019.1 |
| 20260507003027 | 18 | 346 | 9.7 | 19.3 | 0.00 | 0.00 | 0.00 | 64 | 1019.1 |
| 20260507002505 | 18 | 342 | 8.0 | 20.9 | 0.00 | 0.00 | 0.00 | 65 | 1019.1 |
| 20260507002007 | 19 | 347 | 11.3 | 20.9 | 0.00 | 0.00 | 0.00 | 64 | 1019.0 |
| 20260507001517 | 19 | 9 | 9.7 | 16.1 | 0.00 | 0.00 | 0.00 | 64 | 1019.0 |
| 20260507001005 | 19 | 360 | 4.8 | 14.5 | 0.00 | 0.00 | 0.00 | 64 | 1019.0 |
| 20260507000508 | 19 | 352 | 6.4 | 14.5 | 0.00 | 0.00 | 0.00 | 65 | 1019.0 |
| 20260507000023 | 19 | 305 | 4.8 | 12.9 | 0.00 | 0.00 | 0.00 | 66 | 1018.9 |
| 20260506235509 | 19 | 336 | 6.4 | 14.5 | 0.00 | 0.00 | 0.00 | 65 | 1018.9 |
| 20260506235009 | 20 | 9 | 6.4 | 14.5 | 0.00 | 0.00 | 0.00 | 64 | 1019.0 |
| 20260506234524 | 20 | 60 | 3.2 | 12.9 | 0.00 | 0.00 | 0.00 | 64 | 1018.9 |
| 20260506234011 | 20 | 9 | 4.8 | 12.9 | 0.00 | 0.00 | 0.00 | 64 | 1018.8 |
| 20260506233507 | 20 | 323 | 3.2 | 14.5 | 0.00 | 0.00 | 0.00 | 63 | 1018.8 |
| 20260506233026 | 20 | 348 | 4.8 | 14.5 | 0.00 | 0.00 | 0.00 | 63 | 1018.7 |
| 20260506232514 | 20 | 352 | 4.8 | 12.9 | 0.00 | 0.00 | 0.00 | 62 | 1018.7 |
| 20260506232008 | 20 | 5 | 1.6 | 4.8 | 0.00 | 0.00 | 0.00 | 61 | 1018.8 |
| 20260506231515 | 20 | 34 | 1.6 | 4.8 | 0.00 | 0.00 | 0.00 | 62 | 1018.9 |
| 20260506231009 | 20 | 294 | 1.6 | 8.0 | 0.00 | 0.00 | 0.00 | 63 | 1019.0 |
| 20260506230505 | 20 | 323 | 3.2 | 8.0 | 0.00 | 0.00 | 0.00 | 62 | 1019.1 |
| 20260506230022 | 20 | 5 | 1.6 | 6.4 | 0.00 | 0.00 | 0.00 | 63 | 1019.1 |
| 20260506225506 | 20 | 360 | 1.6 | 4.8 | 0.00 | 0.00 | 0.00 | 63 | 1019.2 |
| 20260506225012 | 20 | 24 | 1.6 | 4.8 | 0.00 | 0.00 | 0.00 | 61 | 1019.3 |
| 20260506224524 | 20 | 31 | 1.6 | 8.0 | 0.00 | 0.00 | 0.00 | 62 | 1019.3 |
| 20260506224012 | 20 | 352 | 4.8 | 8.0 | 0.00 | 0.00 | 0.00 | 62 | 1019.4 |
| 20260506223507 | 20 | 33 | 6.4 | 8.0 | 0.00 | 0.00 | 0.00 | 64 | 1019.4 |
| 20260506223026 | 20 | 311 | 4.8 | 8.0 | 0.00 | 0.00 | 0.00 | 64 | 1019.4 |
| 20260506222509 | 19 | 28 | 3.2 | 12.9 | 0.00 | 0.00 | 0.00 | 67 | 1019.4 |
| 20260506222015 | 18 | 69 | 4.8 | 12.9 | 0.00 | 0.00 | 0.00 | 65 | 1019.4 |
| 20260506221528 | 18 | 68 | 3.2 | 6.4 | 0.00 | 0.00 | 0.00 | 66 | 1019.4 |
| 20260506221015 | 18 | 53 | 3.2 | 6.4 | 0.00 | 0.00 | 0.00 | 65 | 1019.4 |
| 20260506220506 | 19 | 91 | 3.2 | 11.3 | 0.00 | 0.00 | 0.00 | 65 | 1019.6 |
| 20260506220016 | 18 | 105 | 1.6 | 11.3 | 0.00 | 0.00 | 0.00 | 66 | 1019.5 |
| 20260506215507 | 18 | 111 | 3.2 | 12.9 | 0.00 | 0.00 | 0.00 | 66 | 1019.5 |
| 20260506215007 | 18 | 84 | 8.0 | 12.9 | 0.00 | 0.00 | 0.00 | 65 | 1019.5 |
| 20260506214523 | 19 | 115 | 4.8 | 11.3 | 0.00 | 0.00 | 0.00 | 64 | 1019.5 |
| 20260506214007 | 20 | 352 | 1.6 | 11.3 | 0.00 | 0.00 | 0.00 | 63 | 1019.4 |
| 20260506213506 | 18 | 122 | 4.8 | 11.3 | 0.00 | 0.00 | 0.00 | 67 | 1019.4 |
| 20260506213024 | 18 | 95 | 3.2 | 11.3 | 0.00 | 0.00 | 0.00 | 67 | 1019.5 |
| 20260506212509 | 18 | 116 | 3.2 | 6.4 | 0.00 | 0.00 | 0.00 | 66 | 1019.5 |
| 20260506212010 | 18 | 76 | 1.6 | 8.0 | 0.00 | 0.00 | 0.00 | 67 | 1019.6 |
| 20260506211530 | 18 | 269 | 3.2 | 8.0 | 0.00 | 0.00 | 0.00 | 67 | 1019.7 |
| 20260506211010 | 17 | 76 | 1.6 | 8.0 | 0.00 | 0.00 | 0.00 | 68 | 1019.7 |
| 20260506210511 | 17 | 107 | 1.6 | 6.4 | 0.00 | 0.00 | 0.00 | 69 | 1019.8 |
| 20260506210027 | 18 | 347 | 3.2 | 9.7 | 0.00 | 0.00 | 0.00 | 69 | 1019.8 |
| 20260506205508 | 18 | 75 | 1.6 | 9.7 | 0.00 | 0.00 | 0.00 | 69 | 1019.8 |
| 20260506205006 | 17 | 13 | 3.2 | 9.7 | 0.00 | 0.00 | 0.00 | 70 | 1019.8 |
| 20260506204524 | 17 | 77 | 3.2 | 9.7 | 0.00 | 0.00 | 0.00 | 70 | 1019.8 |
| 20260506204010 | 17 | 79 | 1.6 | 6.4 | 0.00 | 0.00 | 0.00 | 70 | 1019.7 |
| 20260506203509 | 17 | 115 | 4.8 | 6.4 | 0.00 | 0.00 | 0.00 | 70 | 1019.6 |
| 20260506203027 | 17 | 98 | 1.6 | 8.0 | 0.00 | 0.00 | 0.00 | 70 | 1019.7 |
| 20260506202507 | 17 | 99 | 1.6 | 8.0 | 0.00 | 0.00 | 0.00 | 72 | 1019.7 |
| 20260506202009 | 17 | 133 | 1.6 | 4.8 | 0.00 | 0.00 | 0.00 | 72 | 1019.6 |
| 20260506201528 | 16 | 237 | 1.6 | 6.4 | 0.00 | 0.00 | 0.00 | 72 | 1019.7 |
| 20260506201009 | 17 | 296 | 3.2 | 6.4 | 0.00 | 0.00 | 0.00 | 70 | 1019.8 |
| 20260506200509 | 17 | 352 | 1.6 | 6.4 | 0.00 | 0.00 | 0.00 | 70 | 1019.8 |
| 20260506200026 | 17 | 259 | 1.6 | 4.8 | 0.00 | 0.00 | 0.00 | 70 | 1019.9 |
| 20260506195507 | 17 | 34 | 1.6 | 4.8 | 0.00 | 0.00 | 0.00 | 73 | 1020.0 |
| 20260506195010 | 16 | 350 | 1.6 | 9.7 | 0.00 | 0.00 | 0.00 | 73 | 1020.0 |
| 20260506194519 | 16 | 305 | 3.2 | 9.7 | 0.00 | 0.00 | 0.00 | 73 | 1020.2 |
| 20260506194006 | 16 | 15 | 1.6 | 6.4 | 0.00 | 0.00 | 0.00 | 74 | 1020.3 |
| 20260506193505 | 16 | 315 | 0.0 | 3.2 | 0.00 | 0.00 | 0.00 | 74 | 1020.4 |
| 20260506193028 | 16 | 49 | 0.0 | 4.8 | 0.00 | 0.00 | 0.00 | 74 | 1020.4 |
| 20260506192507 | 16 | 290 | 0.0 | 4.8 | 0.00 | 0.00 | 0.00 | 74 | 1020.3 |
| 20260506192009 | 16 | 9 | 3.2 | 4.8 | 0.00 | 0.00 | 0.00 | 75 | 1020.2 |
| 20260506191526 | 16 | 88 | 3.2 | 3.2 | 0.00 | 0.00 | 0.00 | 75 | 1020.1 |
| 20260506191008 | 16 | 163 | 1.6 | 6.4 | 0.00 | 0.00 | 0.00 | 75 | 1020.1 |
| 20260506190510 | 16 | 184 | 1.6 | 6.4 | 0.00 | 0.00 | 0.00 | 74 | 1020.1 |
| 20260506190026 | 16 | 305 | 0.0 | 4.8 | 0.00 | 0.00 | 0.00 | 75 | 1020.2 |
| 20260506185511 | 16 | 286 | 1.6 | 6.4 | 0.00 | 0.00 | 0.00 | 76 | 1020.2 |
| 20260506185014 | 16 | 179 | 3.2 | 6.4 | 0.00 | 0.00 | 0.00 | 75 | 1020.2 |
| 20260506184527 | 15 | 309 | 1.6 | 6.4 | 0.00 | 0.00 | 0.00 | 78 | 1020.2 |
| 20260506184009 | 15 | 252 | 1.6 | 6.4 | 0.00 | 0.00 | 0.00 | 76 | 1020.2 |
| 20260506183507 | 15 | 161 | 3.2 | 9.7 | 0.00 | 0.00 | 0.00 | 77 | 1020.2 |
| 20260506183022 | 15 | 214 | 1.6 | 9.7 | 0.00 | 0.00 | 0.00 | 77 | 1020.1 |
| 20260506182507 | 15 | 54 | 0.0 | 3.2 | 0.00 | 0.00 | 0.00 | 78 | 1020.2 |
| 20260506182002 | 15 | 84 | 0.0 | 3.2 | 0.00 | 0.00 | 0.00 | 76 | 1020.2 |
| 20260506181507 | 15 | 58 | 0.0 | 4.8 | 0.00 | 0.00 | 0.00 | 77 | 1020.2 |
| 20260506181004 | 15 | 331 | 1.6 | 4.8 | 0.00 | 0.00 | 0.00 | 77 | 1020.2 |
| 20260506180503 | 15 | 290 | 0.0 | 3.2 | 0.00 | 0.00 | 0.00 | 78 | 1020.1 |
| 20260506180011 | 15 | 259 | 0.0 | 3.2 | 0.00 | 0.00 | 0.00 | 78 | 1020.1 |
| 20260506175504 | 15 | 216 | 1.6 | 3.2 | 0.00 | 0.00 | 0.00 | 78 | 1020.0 |
| 20260506175004 | 14 | 331 | 1.6 | 3.2 | 0.00 | 0.00 | 0.00 | 79 | 1020.0 |
| 20260506174516 | 14 | 282 | 0.0 | 3.2 | 0.00 | 0.00 | 0.00 | 79 | 1020.1 |
| 20260506174010 | 14 | 218 | 0.0 | 3.2 | 0.00 | 0.00 | 0.00 | 79 | 1020.0 |
| 20260506173505 | 14 | 85 | 0.0 | 3.2 | 0.00 | 0.00 | 0.00 | 79 | 1020.0 |
| 20260506173022 | 13 | 175 | 1.6 | 3.2 | 0.00 | 0.00 | 0.00 | 79 | 1019.9 |
| 20260506172507 | 14 | 183 | 3.2 | 3.2 | 0.00 | 0.00 | 0.00 | 79 | 1019.9 |
| 20260506172008 | 14 | 94 | 0.0 | 3.2 | 0.00 | 0.00 | 0.00 | 79 | 1019.8 |
| 20260506171525 | 14 | 186 | 0.0 | 3.2 | 0.00 | 0.00 | 0.00 | 79 | 1019.8 |
| 20260506171005 | 14 | 208 | 1.6 | 3.2 | 0.00 | 0.00 | 0.00 | 79 | 1019.8 |
| 20260506170502 | 13 | 42 | 0.0 | 3.2 | 0.00 | 0.00 | 0.00 | 78 | 1019.8 |
| 20260506170011 | 14 | 13 | 0.0 | 4.8 | 0.00 | 0.00 | 0.00 | 78 | 1019.8 |
| 20260506165503 | 14 | 5 | 1.6 | 4.8 | 0.00 | 0.00 | 0.00 | 78 | 1019.9 |
| 20260506165005 | 14 | 313 | 3.2 | 4.8 | 0.00 | 0.00 | 0.00 | 78 | 1019.9 |
| 20260506164512 | 14 | 348 | 1.6 | 6.4 | 0.00 | 0.00 | 0.00 | 79 | 1019.8 |
| 20260506164004 | 13 | 5 | 3.2 | 6.4 | 0.00 | 0.00 | 0.00 | 78 | 1019.8 |
| 20260506163506 | 14 | 10 | 3.2 | 6.4 | 0.00 | 0.00 | 0.00 | 79 | 1019.8 |
| 20260506163022 | 13 | 313 | 1.6 | 6.4 | 0.00 | 0.00 | 0.00 | 79 | 1020.0 |
| 20260506162507 | 14 | 281 | 1.6 | 4.8 | 0.00 | 0.00 | 0.00 | 78 | 1019.9 |
| 20260506162010 | 14 | 11 | 1.6 | 4.8 | 0.00 | 0.00 | 0.00 | 79 | 1019.6 |
| 20260506161524 | 13 | 5 | 1.6 | 3.2 | 0.00 | 0.00 | 0.00 | 80 | 1019.7 |
| 20260506161011 | 13 | 119 | 0.0 | 3.2 | 0.00 | 0.00 | 0.00 | 80 | 1019.6 |
| 20260506160507 | 13 | 5 | 1.6 | 3.2 | 0.00 | 0.00 | 0.00 | 81 | 1019.7 |
| 20260506160006 | 13 | 72 | 0.0 | 4.8 | 0.00 | 0.00 | 0.00 | 81 | 1019.5 |
| 20260506155503 | 13 | 58 | 1.6 | 6.4 | 0.00 | 0.00 | 0.00 | 81 | 1019.4 |
| 20260506155003 | 13 | 86 | 1.6 | 6.4 | 0.00 | 0.00 | 0.00 | 81 | 1019.3 |
| 20260506154511 | 13 | 5 | 3.2 | 6.4 | 0.00 | 0.00 | 0.00 | 81 | 1019.1 |
| 20260506154006 | 13 | 152 | 0.0 | 8.0 | 0.00 | 0.00 | 0.00 | 81 | 1019.1 |
| 20260506153506 | 13 | 67 | 3.2 | 8.0 | 0.00 | 0.00 | 0.00 | 81 | 1019.2 |
| 20260506153016 | 13 | 72 | 1.6 | 8.0 | 0.00 | 0.00 | 0.00 | 82 | 1019.5 |
| 20260506152507 | 13 | 324 | 1.6 | 8.0 | 0.00 | 0.00 | 0.00 | 82 | 1019.7 |
| 20260506152008 | 12 | 10 | 1.6 | 8.0 | 0.00 | 0.00 | 0.00 | 82 | 1019.8 |
| 20260506151522 | 12 | 325 | 1.6 | 9.7 | 0.00 | 0.00 | 0.00 | 82 | 1019.8 |
| 20260506151008 | 12 | 327 | 6.4 | 9.7 | 0.00 | 0.00 | 0.00 | 82 | 1019.9 |
| 20260506150508 | 12 | 360 | 1.6 | 9.7 | 0.00 | 0.00 | 0.00 | 82 | 1019.8 |
| 20260506150026 | 12 | 345 | 4.8 | 12.9 | 0.00 | 0.00 | 0.00 | 82 | 1019.9 |
| 20260506145517 | 13 | 343 | 6.4 | 12.9 | 0.00 | 0.00 | 0.00 | 82 | 1019.8 |
| 20260506145010 | 13 | 343 | 3.2 | 8.0 | 0.00 | 0.00 | 0.00 | 82 | 1019.7 |
| 20260506144524 | 13 | 352 | 3.2 | 8.0 | 0.00 | 0.00 | 0.00 | 82 | 1019.4 |
| 20260506144004 | 13 | 352 | 4.8 | 8.0 | 0.00 | 0.00 | 0.00 | 82 | 1019.6 |
| 20260506143504 | 13 | 327 | 3.2 | 6.4 | 0.00 | 0.00 | 0.00 | 82 | 1019.6 |
| 20260506143015 | 13 | 352 | 1.6 | 6.4 | 0.00 | 0.00 | 0.00 | 82 | 1019.4 |
| 20260506142506 | 13 | 302 | 3.2 | 6.4 | 0.00 | 0.00 | 0.00 | 82 | 1019.3 |
| 20260506142008 | 13 | 15 | 3.2 | 6.4 | 0.00 | 0.00 | 0.00 | 82 | 1019.1 |
| 20260506141520 | 13 | 352 | 3.2 | 6.4 | 0.00 | 0.00 | 0.00 | 83 | 1019.0 |
| 20260506141009 | 13 | 342 | 3.2 | 6.4 | 0.00 | 0.00 | 0.00 | 82 | 1018.9 |
| 20260506140508 | 13 | 340 | 3.2 | 8.0 | 0.00 | 0.00 | 0.00 | 83 | 1019.0 |
| 20260506140036 | 13 | 350 | 1.6 | 8.0 | 0.00 | 0.00 | 0.00 | 83 | 1018.9 |
| 20260506135509 | 13 | 24 | 4.8 | 6.4 | 0.00 | 0.00 | 0.00 | 83 | 1019.0 |
| 20260506135014 | 13 | 360 | 1.6 | 4.8 | 0.00 | 0.00 | 0.00 | 83 | 1019.0 |
| 20260506134533 | 13 | 33 | 1.6 | 4.8 | 0.00 | 0.00 | 0.00 | 83 | 1018.8 |
| 20260506134010 | 13 | 336 | 0.0 | 3.2 | 0.00 | 0.00 | 0.00 | 83 | 1018.9 |
| 20260506133503 | 13 | 338 | 1.6 | 3.2 | 0.00 | 0.00 | 0.00 | 83 | 1018.8 |
| 20260506133016 | 13 | 360 | 1.6 | 3.2 | 0.00 | 0.00 | 0.00 | 83 | 1018.8 |
| 20260506132508 | 13 | 322 | 0.0 | 3.2 | 0.00 | 0.00 | 0.00 | 83 | 1018.7 |
| 20260506132007 | 13 | 49 | 0.0 | 3.2 | 0.00 | 0.00 | 0.00 | 83 | 1018.7 |
| 20260506131532 | 13 | 53 | 0.0 | 3.2 | 0.00 | 0.00 | 0.00 | 83 | 1018.6 |
| 20260506131007 | 13 | 46 | 0.0 | 3.2 | 0.00 | 0.00 | 0.00 | 83 | 1018.5 |
| 20260506130507 | 13 | 5 | 0.0 | 3.2 | 0.00 | 0.00 | 0.00 | 83 | 1018.5 |
| 20260506130022 | 13 | 9 | 0.0 | 3.2 | 0.00 | 0.00 | 0.00 | 83 | 1018.4 |
| 20260506125508 | 13 | 360 | 0.0 | 3.2 | 0.00 | 0.00 | 0.00 | 83 | 1018.4 |
| 20260506125007 | 13 | 348 | 1.6 | 3.2 | 0.00 | 0.00 | 0.00 | 83 | 1018.4 |
| 20260506124523 | 13 | 352 | 0.0 | 3.2 | 0.00 | 0.00 | 0.00 | 83 | 1018.3 |
| 20260506124010 | 13 | 352 | 0.0 | 3.2 | 0.00 | 0.00 | 0.00 | 83 | 1018.4 |
| 20260506123509 | 13 | 335 | 0.0 | 3.2 | 0.00 | 0.00 | 0.00 | 83 | 1018.3 |
| 20260506123036 | 13 | 340 | 0.0 | 4.8 | 0.00 | 0.00 | 0.00 | 83 | 1018.3 |
| 20260506122506 | 13 | 360 | 1.6 | 4.8 | 0.00 | 0.00 | 0.00 | 83 | 1018.5 |
| 20260506122003 | 13 | 344 | 1.6 | 4.8 | 0.00 | 0.00 | 0.00 | 83 | 1018.5 |
| 20260506121517 | 13 | 9 | 1.6 | 6.4 | 0.00 | 0.00 | 0.00 | 83 | 1018.5 |
| 20260506121006 | 13 | 349 | 3.2 | 8.0 | 0.00 | 0.00 | 0.00 | 83 | 1018.5 |
| 20260506120507 | 13 | 298 | 1.6 | 8.0 | 0.00 | 0.00 | 0.00 | 83 | 1018.4 |
| 20260506120030 | 13 | 340 | 3.2 | 9.7 | 0.00 | 0.00 | 0.00 | 82 | 1018.4 |
| 20260506115514 | 13 | 341 | 3.2 | 9.7 | 0.00 | 0.00 | 0.00 | 82 | 1018.4 |
| 20260506115006 | 13 | 352 | 1.6 | 6.4 | 0.00 | 0.00 | 0.00 | 82 | 1018.3 |
| 20260506114523 | 13 | 294 | 1.6 | 6.4 | 0.00 | 0.00 | 0.00 | 82 | 1018.2 |
| 20260506114007 | 13 | 334 | 1.6 | 8.0 | 0.00 | 0.00 | 0.00 | 82 | 1018.1 |
| 20260506113504 | 13 | 298 | 3.2 | 8.0 | 0.00 | 0.00 | 0.00 | 82 | 1018.2 |
| 20260506113010 | 13 | 308 | 3.2 | 8.0 | 0.00 | 0.00 | 0.00 | 82 | 1018.1 |
| 20260506112502 | 13 | 349 | 1.6 | 6.4 | 0.00 | 0.00 | 0.00 | 82 | 1018.1 |
| 20260506112007 | 13 | 302 | 1.6 | 6.4 | 0.00 | 0.00 | 0.00 | 81 | 1018.2 |
| 20260506111515 | 13 | 342 | 1.6 | 8.0 | 0.00 | 0.00 | 0.00 | 81 | 1018.1 |
| 20260506111004 | 13 | 10 | 1.6 | 8.0 | 0.00 | 0.00 | 0.00 | 81 | 1017.9 |
| 20260506110509 | 13 | 360 | 3.2 | 8.0 | 0.00 | 0.00 | 0.00 | 81 | 1017.9 |
| 20260506110019 | 13 | 352 | 3.2 | 8.0 | 0.00 | 0.00 | 0.00 | 81 | 1017.8 |
| 20260506105507 | 13 | 328 | 1.6 | 6.4 | 0.00 | 0.00 | 0.00 | 80 | 1017.6 |
| 20260506105008 | 13 | 5 | 3.2 | 9.7 | 0.00 | 0.00 | 0.00 | 80 | 1017.6 |
| 20260506104526 | 13 | 329 | 3.2 | 12.9 | 0.00 | 0.00 | 0.00 | 80 | 1017.5 |
| 20260506104007 | 13 | 360 | 6.4 | 12.9 | 0.00 | 0.00 | 0.00 | 80 | 1017.4 |
| 20260506103510 | 13 | 352 | 0.0 | 8.0 | 0.00 | 0.00 | 0.00 | 80 | 1017.4 |
| 20260506103010 | 13 | 10 | 3.2 | 8.0 | 0.00 | 0.00 | 0.00 | 80 | 1017.4 |
| 20260506102503 | 13 | 360 | 4.8 | 8.0 | 0.00 | 0.00 | 0.00 | 80 | 1017.2 |
| 20260506102004 | 13 | 13 | 3.2 | 9.7 | 0.00 | 0.00 | 0.00 | 80 | 1017.1 |
| 20260506101511 | 13 | 339 | 3.2 | 9.7 | 0.00 | 0.00 | 0.00 | 80 | 1017.0 |
| 20260506101007 | 13 | 319 | 1.6 | 9.7 | 0.00 | 0.00 | 0.00 | 80 | 1017.0 |
| 20260506100506 | 13 | 5 | 1.6 | 9.7 | 0.00 | 0.00 | 0.00 | 80 | 1017.0 |
| 20260506100021 | 13 | 352 | 4.8 | 9.7 | 0.00 | 0.00 | 0.00 | 79 | 1017.0 |
| 20260506095507 | 13 | 318 | 4.8 | 8.0 | 0.00 | 0.00 | 0.00 | 80 | 1016.9 |
| 20260506095007 | 13 | 317 | 0.0 | 8.0 | 0.00 | 0.00 | 0.00 | 80 | 1016.9 |
| 20260506094526 | 13 | 347 | 1.6 | 6.4 | 0.00 | 0.00 | 0.00 | 80 | 1017.0 |
| 20260506094011 | 13 | 14 | 4.8 | 8.0 | 0.00 | 0.00 | 0.00 | 80 | 1016.8 |
| 20260506093511 | 13 | 342 | 1.6 | 8.0 | 0.00 | 0.00 | 0.00 | 79 | 1016.9 |
| 20260506093032 | 13 | 9 | 3.2 | 8.0 | 0.00 | 0.00 | 0.00 | 79 | 1016.8 |
| 20260506092509 | 13 | 13 | 1.6 | 9.7 | 0.00 | 0.00 | 0.00 | 79 | 1016.9 |
| 20260506092003 | 13 | 32 | 4.8 | 11.3 | 0.00 | 0.00 | 0.00 | 79 | 1016.9 |
| 20260506091510 | 13 | 345 | 4.8 | 11.3 | 0.00 | 0.00 | 0.00 | 79 | 1016.9 |
| 20260506091007 | 13 | 9 | 3.2 | 8.0 | 0.00 | 0.00 | 0.00 | 79 | 1016.8 |
| 20260506090506 | 13 | 9 | 3.2 | 8.0 | 0.00 | 0.00 | 0.00 | 79 | 1016.8 |
| 20260506090013 | 13 | 327 | 0.0 | 6.4 | 0.00 | 0.00 | 0.00 | 79 | 1016.8 |
| 20260506085511 | 14 | 285 | 1.6 | 6.4 | 0.00 | 0.00 | 0.00 | 79 | 1016.8 |
| 20260506085006 | 14 | 360 | 1.6 | 6.4 | 0.00 | 0.00 | 0.00 | 78 | 1016.8 |
| 20260506084522 | 14 | 352 | 1.6 | 6.4 | 0.00 | 0.00 | 0.00 | 78 | 1016.8 |
| 20260506084008 | 14 | 351 | 1.6 | 8.0 | 0.00 | 0.00 | 0.00 | 79 | 1016.8 |
| 20260506083508 | 14 | 13 | 3.2 | 8.0 | 0.00 | 0.00 | 0.00 | 78 | 1016.8 |
| 20260506083029 | 14 | 9 | 3.2 | 9.7 | 0.00 | 0.00 | 0.00 | 78 | 1016.8 |
| 20260506082511 | 14 | 14 | 3.2 | 9.7 | 0.00 | 0.00 | 0.00 | 78 | 1016.7 |
| 20260506082010 | 14 | 299 | 3.2 | 6.4 | 0.00 | 0.00 | 0.00 | 78 | 1016.8 |
| 20260506081528 | 14 | 351 | 3.2 | 11.3 | 0.00 | 0.00 | 0.00 | 78 | 1016.7 |
| 20260506081011 | 14 | 352 | 6.4 | 11.3 | 0.00 | 0.00 | 0.00 | 78 | 1016.7 |
| 20260506080504 | 14 | 350 | 4.8 | 9.7 | 0.00 | 0.00 | 0.00 | 78 | 1016.6 |